Date String (YYYY-MM-DD hh:mm:ss) UTC,Instrument flags,absolute air pressure of the measurement (hPa),sample flow rate (lpm),inlet stack bypass flow (lpm),air temperature of the measurement (°C),ambient temperature measured by the external sensor (°C),aerosol sample conditioner tube jacket temperature (°C),OPC LED temperature (°C),internal box temperature (°C),relative humidity of the measurement (%),span deviation,mass concentration of particles derived from Lorenz-Mie calculation of OPC scattering (μg/m³),mass concentration of particles derived from Lorenz-Mie calculation of OPC scattering (μg/m³),mass concentration of particles derived from Lorenz-Mie calculation of OPC scattering (μg/m³)
DateTimeUTC,F1_M11,P_M11,Q1_M11,Q2_M11,T1_M11,T2_M11,T3_M11,T4_M11,T5_M11,U1_M11,ZSPAN_M11,X2_M11,X0_M11,X1_M11
2024-03-30 12:00:00,SystemResetWarning,0823.8,5.00,000.00,020.3,019.7,000.0,028.9,022.1,29.2,-001.1,0013.15,0021.03,0012.03
2024-03-30 12:01:00,SystemResetWarning,0823.8,5.00,000.00,020.3,019.7,000.0,028.9,022.1,29.2,-001.3,0013.06,0021.48,0012.01
2024-03-30 12:02:00,SystemResetWarning,0823.8,5.00,000.00,020.3,019.7,000.0,028.9,022.1,29.3,-001.3,0013.07,0021.72,0012.00
2024-03-30 12:03:00,SystemResetWarning,0823.8,5.00,000.00,020.3,019.7,000.0,028.9,022.1,29.3,-001.2,0013.03,0020.99,0011.98
2024-03-30 12:04:00,SystemResetWarning,0823.8,5.00,000.00,020.3,019.7,000.0,028.9,022.1,29.5,-001.3,0013.02,0020.64,0012.01
2024-03-30 12:05:00,SystemResetWarning,0823.8,5.00,000.00,020.3,019.7,000.0,028.9,022.1,29.5,-001.3,0013.05,0019.88,0012.07
2024-03-30 12:06:00,SystemResetWarning,0823.8,5.00,000.00,020.3,019.7,000.0,028.9,022.1,29.5,-001.3,0013.15,0019.97,0012.19
2024-03-30 12:07:00,SystemResetWarning,0823.7,5.00,000.00,020.3,019.7,000.0,028.9,022.1,29.5,-001.4,0013.25,0019.90,0012.32
2024-03-30 12:08:00,SystemResetWarning,0823.7,4.99,000.00,020.3,019.7,000.0,028.9,022.1,29.5,-001.5,0013.28,0019.71,0012.44
2024-03-30 12:09:00,SystemResetWarning,0823.7,5.00,000.00,020.3,019.7,000.0,028.9,022.1,29.5,-001.2,0013.36,0019.56,0012.54
2024-03-30 12:10:00,SystemResetWarning,0823.7,4.99,000.00,020.3,019.7,000.0,028.9,022.1,29.5,-001.0,0013.42,0019.06,0012.62
2024-03-30 12:11:00,SystemResetWarning,0823.7,4.99,000.00,020.3,019.7,000.0,028.9,022.1,29.5,-001.0,0013.55,0018.63,0012.74
2024-03-30 12:12:00,SystemResetWarning,0823.7,5.02,000.00,020.3,019.7,000.0,028.9,022.1,29.5,-000.8,0013.65,0017.48,0012.85
2024-03-30 12:13:00,SystemResetWarning,0823.8,5.01,000.00,020.3,019.7,000.0,028.9,022.1,29.5,-000.7,0013.68,0016.66,0012.92
2024-03-30 12:14:00,SystemResetWarning,0823.8,5.00,000.00,020.3,019.7,000.0,028.9,022.1,29.5,-000.6,0013.67,0016.48,0012.99
2024-03-30 12:15:00,SystemResetWarning,0823.8,4.99,000.00,020.3,019.7,000.0,028.8,022.1,29.5,-000.4,0013.68,0016.51,0013.01
2024-03-30 12:16:00,SystemResetWarning,0823.8,5.00,000.00,020.3,019.7,000.0,028.8,022.1,29.8,-000.2,0013.66,0016.71,0013.01
2024-03-30 12:17:00,SystemResetWarning,0823.8,5.01,000.00,020.3,019.7,000.0,028.8,022.1,29.9,-000.3,0013.61,0016.58,0012.99
2024-03-30 12:18:00,SystemResetWarning,0823.8,5.00,000.00,020.3,019.7,000.0,028.9,022.1,29.7,-000.2,0013.57,0016.48,0012.94
2024-03-30 12:19:00,SystemResetWarning,0823.8,5.01,000.00,020.3,019.7,000.0,028.8,022.1,29.5,-000.1,0013.45,0016.43,0012.81
2024-03-30 12:20:00,SystemResetWarning,0823.8,5.00,000.00,020.3,019.6,000.0,028.8,022.1,29.3,-000.6,0013.28,0016.23,0012.65
2024-03-30 12:21:00,SystemResetWarning,0823.8,5.00,000.00,020.3,019.6,000.0,028.8,022.1,29.3,-000.9,0013.14,0016.14,0012.51
2024-03-30 12:22:00,SystemResetWarning,0823.8,5.00,000.00,020.3,019.6,000.0,028.8,022.1,29.1,-001.1,0012.93,0015.99,0012.31
2024-03-30 12:23:00,SystemResetWarning,0823.8,5.00,000.00,020.3,019.6,000.0,028.8,022.1,28.9,-001.1,0012.68,0015.76,0012.08
2024-03-30 12:24:00,SystemResetWarning,0823.8,4.99,000.00,020.3,019.6,000.0,028.8,022.0,28.7,-001.1,0012.39,0015.45,0011.80
2024-03-30 12:25:00,SystemResetWarning,0823.7,4.99,000.00,020.3,019.6,000.0,028.8,022.1,28.7,-001.4,0012.09,0015.17,0011.51
2024-03-30 12:26:00,SystemResetWarning,0823.8,5.00,000.00,020.3,019.6,000.0,028.8,022.1,28.5,-001.5,0011.82,0014.93,0011.24
2024-03-30 12:27:00,SystemResetWarning,0823.7,5.00,000.00,020.3,019.6,000.0,028.8,022.1,28.3,-001.7,0011.53,0014.57,0010.93
2024-03-30 12:28:00,SystemResetWarning,0823.7,5.00,000.00,020.3,019.6,000.0,028.8,022.0,28.1,-001.6,0011.14,0014.00,0010.55
2024-03-30 12:29:00,SystemResetWarning,0823.7,5.00,000.00,020.3,019.6,000.0,028.8,022.0,28.1,-001.4,0010.75,0013.83,0010.19
2024-03-30 12:30:00,SystemResetWarning,0823.7,5.01,000.00,020.3,019.6,000.0,028.8,022.0,28.0,-001.5,0010.48,0013.81,0009.94
2024-03-30 12:31:00,SystemResetWarning,0823.7,5.00,000.00,020.3,019.6,000.0,028.8,022.0,28.0,-001.2,0010.24,0013.52,0009.71
2024-03-30 12:32:00,SystemResetWarning,0823.6,5.00,000.00,020.3,019.6,000.0,028.8,022.0,27.9,-000.7,0010.00,0013.31,0009.48
2024-03-30 12:33:00,SystemResetWarning,0823.6,5.00,000.00,020.3,019.6,000.0,028.8,022.0,27.8,-000.3,0009.79,0013.03,0009.29
2024-03-30 12:34:00,SystemResetWarning,0823.6,5.00,000.00,020.2,019.6,000.0,028.8,022.0,27.7,-000.7,0009.62,0013.48,0009.12
2024-03-30 12:35:00,SystemResetWarning,0823.6,5.00,000.00,020.2,019.6,000.0,028.8,022.0,27.6,-000.6,0009.48,0013.34,0008.98
2024-03-30 12:36:00,SystemResetWarning,0823.6,5.00,000.00,020.2,019.6,000.0,028.8,022.0,27.6,-000.4,0009.40,0013.27,0008.90
2024-03-30 12:37:00,SystemResetWarning,0823.6,5.00,000.00,020.2,019.6,000.0,028.8,022.0,27.7,-001.0,0009.30,0013.12,0008.81
2024-03-30 12:38:00,SystemResetWarning,0823.6,5.00,000.00,020.2,019.5,000.0,028.8,022.0,27.6,-001.5,0009.22,0012.67,0008.76
2024-03-30 12:39:00,SystemResetWarning,0823.7,5.00,000.00,020.2,019.5,000.0,028.8,022.0,27.6,-001.8,0009.20,0012.66,0008.74
2024-03-30 12:40:00,SystemResetWarning,0823.7,5.00,000.00,020.2,019.5,000.0,028.8,022.0,27.5,-001.8,0009.19,0012.59,0008.71
2024-03-30 12:41:00,SystemResetWarning,0823.6,5.00,000.00,020.2,019.5,000.0,028.8,022.0,27.4,-001.5,0009.15,0012.33,0008.66
2024-03-30 12:42:00,SystemResetWarning,0823.6,5.00,000.00,020.2,019.5,000.0,028.8,022.0,27.4,-001.4,0009.09,0012.22,0008.62
2024-03-30 12:43:00,SystemResetWarning,0823.6,5.00,000.00,020.2,019.5,000.0,028.8,022.0,27.4,-001.3,0009.04,0012.21,0008.59
2024-03-30 12:44:00,SystemResetWarning,0823.6,5.00,000.00,020.2,019.5,000.0,028.8,022.0,27.4,-001.5,0009.02,0012.33,0008.54
2024-03-30 12:45:00,SystemResetWarning,0823.6,5.00,000.00,020.2,019.5,000.0,028.8,022.0,27.4,-001.6,0009.04,0011.88,0008.52
2024-03-30 12:46:00,SystemResetWarning,0823.6,5.00,000.00,020.2,019.5,000.0,028.8,022.0,27.4,-001.5,0009.05,0011.93,0008.52
2024-03-30 12:47:00,SystemResetWarning,0823.5,5.00,000.00,020.2,019.5,000.0,028.8,022.0,27.4,-001.6,0009.03,0011.92,0008.51
2024-03-30 12:48:00,SystemResetWarning,0823.5,5.00,000.00,020.2,019.5,000.0,028.8,022.0,27.4,-001.4,0009.02,0011.95,0008.48
2024-03-30 12:49:00,SystemResetWarning,0823.5,5.00,000.00,020.2,019.5,000.0,028.8,022.0,27.3,-001.3,0009.03,0012.01,0008.47
2024-03-30 12:50:00,SystemResetWarning,0823.6,5.01,000.00,020.2,019.5,000.0,028.7,022.0,27.3,-000.8,0009.01,0012.00,0008.44
2024-03-30 12:51:00,SystemResetWarning,0823.6,5.00,000.00,020.2,019.5,000.0,028.7,022.0,27.2,-000.8,0008.95,0011.75,0008.41
2024-03-30 12:52:00,SystemResetWarning,0823.6,5.00,000.00,020.2,019.5,000.0,028.7,021.9,27.3,-001.2,0008.91,0011.75,0008.39
2024-03-30 12:53:00,SystemResetWarning,0823.6,5.01,000.00,020.2,019.5,000.0,028.7,021.9,27.2,-001.6,0008.90,0011.77,0008.37
2024-03-30 12:54:00,SystemResetWarning,0823.5,5.01,000.00,020.2,019.5,000.0,028.7,022.0,27.2,-002.1,0008.89,0011.67,0008.36
2024-03-30 12:55:00,SystemResetWarning,0823.6,5.00,000.00,020.2,019.5,000.0,028.7,021.9,27.1,-002.2,0008.85,0011.46,0008.32
2024-03-30 12:56:00,SystemResetWarning,0823.6,5.01,000.00,020.2,019.5,000.0,028.7,021.9,27.0,-002.3,0008.71,0011.17,0008.25
2024-03-30 12:57:00,SystemResetWarning,0823.6,5.00,000.00,020.2,019.5,000.0,028.7,021.9,27.0,-002.3,0008.58,0011.01,0008.15
2024-03-30 12:58:00,SystemResetWarning,0823.6,5.00,000.00,020.2,019.4,000.0,028.7,021.9,27.0,-001.4,0008.50,0010.93,0008.06
2024-03-30 12:59:00,SystemResetWarning,0823.6,5.00,000.00,020.2,019.4,000.0,028.7,021.9,27.1,0000.0,0008.44,0010.91,0008.00
